SCP
0 0 0 0 0 0 0 0 0 0 0 0 0 0 0 0 0 0 0 0 0 0 0 0 0 0 0 0 0 0 0 0 0 0 0 0 0 0 0 0 0 0 0 0
0 0 0 0 0 0 0 0 0 0 0 0 0 0 0 0 0 0 0 0 0 0 0 0 0 0 0 0 0 0 0 0 0 0 0 0 0 0 0 0 0 0 0 0
0 0 0 0 0 0 0 0 0 0 0 0 0 0 0 0 0 0 0 0 0 0 0 0 0 0 0 0 0 0 0 0 0 0 0 0 0 0 0 0 0 0 0 0
0 0 0 0 0 0 0 0 0 0 0 0 0 0 0 0 0 0 0 0 0 0 0 0 0 0 0 0 0 0 0 0 0 0 0 0 0 0 0 0 0 0 0 0
0 0 0 0 0 0 0 0 0 0 0 0 0 0 0 0 0 0 0 0 0 0 0 0 0 0 0 0 0 0 0 0 0 0 0 0 0 0 0 0 0 0 0 0
0 0 0 0 0 0 0 0 0 0 0 0 0 0 0 0 0 0 0 0 0 0 0 0 0 0 0 0 0 0 0 0 0 0 0 0 0 0 0 0 0 0 0 0
0 0 0 0 0 0 0 0 0 0 0 0 0 0 0 0 0 0 0 0 0 0 0 0 0 0 0 0 0 0 0 0 0 0 0 0 0 0 0 0 0 0 0 0
0 0 0 0 0 0 0 0 0 0 0 0 0 0 0 0 0 0 0 0 0 0 0 0 0 0 0 0 0 0 0 0 0 0 0 0 0 0 0 0 0 0 0 0
0 0 0 0 0 0 0 0 0 0 0 0 0 0 0 0 0 0 0 0 0 0 0 0 0 0 0 0 0 0 0 0 0 0 0 0 0 0 0 0 0 0 0 0
0 0 0 0 0 0 0 0 0 0 0 0 0 0 0 0 0 0 0 0 0 0 0 0 0 0 0 0 0 0 0 0 0 0 0 0 0 0 0 0 0 0 0 0
0 0 0 0 0 0 0 0 0 0 0 0 0 0 0 0 0 0 0 0 0 0 0 0 0 0 0 0 0 0 0 0 0 0 0 0 0 0 0 0 0 0 0 0
0 0 0 0 0 0 0 0 0 0 0 0 0 0 0 0 0 0 0 0 0 0 0 0 0 0 0 0 0 0 0 0 0 0 0 0 0 0 0 0 0 0 0 0
0 0 0 0 0 0 0 0 0 0 0 0 0 0 0 0 0 0 0 0 0 0 0 0 0 0 0 0 0 0 0 0 0 0 0 0 0 0 0 0 0 0 0 0
0 0 0 0 0 0 0 0 0 0 0 0 0 0 0 0 0 0 0 0 0 0 0 0 0 0 0 0 0 0 0 0 0 0 0 0 0 0 0 0 0 0 0 0
0 0 0 0 0 0 0 0 0 0 0 0 0 0 0 0 0 0 0 0 0 0 0 0 0 0 0 0 0 0 0 0 0 0 0 0 0 0 0 0 0 0 0 0
0 0 0 0 0 0 0 0 0 0 0 0 0 0 0 0 0 0 0 0 0 0 0 0 0 0 0 0 0 0 0 0 0 0 0 0 0 0 0 0 0 0 0 0
0 0 0 0 0 0 0 0 0 0 0 0 0 0 0 0 0 0 0 0 0 0 0 0 0 0 0 0 0 0 0 0 0 0 0 0 0 0 0 0 0 0 0 0
0 0 0 0 0 0 0 0 0 0 0 0 0 0 0 0 0 0 0 0 0 0 0 0 0 0 0 0 0 0 0 0 0 0 0 0 0 0 0 0 0 0 0 0
0 0 0 0 0 0 0 0 0 0 0 0 0 0 0 0 0 0 0 0 0 0 0 0 0 0 0 0 0 0 0 0 0 0 0 0 0 0 0 0 0 0 0 0
0 0 0 0 0 0 0 0 0 0 0 0 0 0 0 0 0 0 0 0 0 0 0 0 0 0 0 0 0 0 0 0 0 0 0 0 0 0 0 0 0 0 0 0
0 0 0 0 0 0 0 0 0 0 0 0 0 0 0 0 0 0 0 0 0 0 0 0 0 0 0 0 0 0 0 0 0 0 0 0 0 0 0 0 0 0 0 0
0 0 0 0 0 0 0 0 0 0 0 0 0 0 0 0 0 0 0 0 0 0 0 0 0 0 0 0 0 0 0 0 0 0 0 0 0 0 0 0 0 0 0 0
0 0 0 0 0 0 0 0 0 0 0 0 0 0 0 0 0 0 0 0 0 0 0 0 0 0 0 0 0 0 0 0 0 0 0 0 0 0 0 0 0 0 0 0
0 0 0 0 0 0 0 0 0 0 0 0 0 0 0 0 0 0 0 0 0 0 0 0 0 0 0 0 0 0 0 0 0 0 0 0 0 0 0 0 0 0 0 0
0 0 0 0 0 0 0 0 0 0 0 0 0 0 0 0 0 0 0 0 0 0 0 0 0 0 0 0 0 0 0 0 0 0 0 0 0 0 0 0 0 0 0 0
0 0 0 0 0 0 0 0 0 0 0 0 0 0 0 0 0 0 0 0 0 0 0 0 0 0 0 0 0 0 0 0 0 0 0 0 0 0 0 0 0 0 0 0
Wind_Speed
3 4 3 5 5 4 4 4 2 3 2 3 4 4 5 6 6 6 6 6 6 7 5 4 4 4 4 4 5 5 5 3 3 2 2 2 2 1 2 2 3 3 2 3
4 1 4 3 4 3 3 3 1 1 1 3 2 4 4 6 7 7 8 8 8 5 4 4 5 5 5 5 5 5 4 4 3 2 2 2 2 1 1 2 3 3 3 3
3 3 2 5 4 4 3 4 4 2 1 2 1 3 3 4 4 4 6 7 6 8 8 6 6 6 5 6 6 6 5 4 3 3 3 3 3 3 3 3 3 3 3 3
2 3 2 3 3 5 3 4 4 4 3 1 1 3 6 4 4 6 7 7 7 8 7 7 7 7 7 7 6 5 5 4 3 4 4 4 2 1 0 1 1 3 4 3
3 2 3 3 4 5 4 2 3 3 3 1 0 2 7 1 5 9 9 9 9 9 9 9 9 8 7 6 6 5 5 4 3 4 5 4 3 2 1 1 3 3 3 3
3 2 3 3 2 4 5 6 6 5 4 1 3 3 7 5 7 6 8 9 9 9 9 8 6 6 5 5 5 5 5 4 4 4 4 5 5 3 2 2 2 2 2 2
2 2 1 2 3 3 4 6 3 3 2 4 2 3 9 7 6 7 9 10 9 9 9 8 8 8 7 7 7 6 6 5 4 4 4 4 5 4 4 2 2 2 1 1
3 3 3 2 4 5 3 7 6 4 4 4 1 5 8 5 4 4 5 6 8 8 9 9 10 9 9 8 8 7 7 5 5 5 4 3 4 3 2 2 2 2 1 1
5 4 2 1 2 7 5 3 5 5 2 1 4 6 8 2 1 0 2 5 7 9 10 10 9 9 8 9 8 9 8 6 5 5 4 4 3 3 3 3 2 2 1 1
6 3 2 0 4 3 5 7 5 4 3 2 5 4 5 4 3 1 2 5 6 7 8 8 8 8 8 8 7 7 7 7 6 5 4 4 4 4 3 3 3 2 2 2
4 4 1 1 3 4 4 3 4 4 4 4 2 7 6 5 4 5 5 5 6 8 9 9 8 7 7 7 7 7 7 6 5 5 4 4 4 3 3 3 3 3 2 3
4 5 2 3 3 3 4 6 7 5 3 4 3 8 5 4 4 4 4 4 5 7 7 7 7 7 7 7 7 7 7 7 6 6 5 4 4 4 3 3 3 3 3 3
6 6 3 3 3 0 2 3 4 5 5 4 4 8 4 2 1 1 3 3 4 5 6 6 6 7 8 8 8 7 7 7 6 6 6 5 4 4 4 4 3 3 4 3
6 5 6 8 7 5 3 4 4 5 4 5 7 8 7 4 3 3 3 3 4 5 7 8 7 7 8 8 8 8 7 7 7 6 6 6 5 5 5 4 4 4 4 4
5 4 4 4 4 4 5 6 7 7 8 8 7 7 9 6 5 4 4 4 4 5 7 9 9 8 7 7 7 7 7 7 7 7 7 6 5 4 4 4 4 4 4 4
3 4 3 2 2 3 4 7 8 8 6 6 5 7 7 4 2 3 4 5 7 7 8 8 9 9 9 10 9 8 8 7 8 8 7 6 5 5 5 4 4 4 4 4
2 5 4 3 1 1 6 8 8 6 6 7 8 8 4 2 4 5 6 6 7 8 8 9 9 10 10 10 10 10 9 8 8 8 7 7 7 6 6 5 5 5 5 4
6 5 4 3 2 6 9 4 7 7 6 6 5 5 5 6 5 4 4 6 6 6 7 8 8 8 8 8 8 8 7 8 9 8 7 7 7 7 6 6 6 5 4 4
6 7 4 4 4 6 7 3 6 7 6 6 6 5 3 1 1 2 2 4 6 6 6 7 7 7 7 7 8 8 8 8 8 9 8 8 8 8 7 7 6 5 4 4
4 5 5 4 5 7 8 4 3 5 4 4 6 5 3 3 1 5 3 3 3 3 3 4 4 5 6 6 7 9 9 9 10 10 9 9 9 9 9 8 6 4 4 4
4 3 5 5 5 8 7 3 4 5 7 3 5 5 5 5 6 5 2 2 2 2 2 3 4 5 6 7 8 9 9 10 10 8 8 8 8 9 8 7 5 5 5 5
7 6 6 5 5 8 3 4 6 6 3 2 4 4 4 4 2 1 2 2 1 1 2 4 4 4 4 6 8 8 9 8 6 7 8 8 8 8 7 7 6 6 6 6
6 7 6 7 7 4 3 5 4 2 2 2 3 2 3 2 2 1 1 1 1 2 2 3 4 4 4 5 7 8 7 6 7 8 8 8 8 7 7 8 7 6 5 5
3 1 3 2 5 4 3 2 1 1 2 2 2 2 3 2 2 2 2 1 1 1 2 3 4 4 3 4 5 5 5 6 8 8 7 7 7 6 5 5 6 6 6 6
4 2 2 3 4 2 2 2 1 1 0 1 1 2 3 4 2 2 2 2 2 1 2 3 4 4 3 3 3 3 4 6 7 7 6 6 6 6 6 5 4 6 6 7
5 5 5 5 5 4 5 3 2 1 1 1 2 1 1 3 3 2 2 2 2 2 2 3 3 3 2 3 3 3 4 6 7 6 6 5 5 5 5 5 3 2 3 5
Wind_Direction
45 80 173 199 186 171 157 159 199 239 203 156 209 233 223 196 192 198 202 207 214 222 221 186 173 157 140 135 137 145 135 133 122 102 92 79 54 21 24 26 39 55 79 95
49 265 224 176 157 137 138 150 216 292 129 156 215 260 243 205 206 203 201 207 210 212 200 183 172 163 162 163 162 154 151 149 138 122 118 116 111 72 43 15 32 35 60 90
175 240 171 142 148 153 175 184 196 190 75 69 101 308 261 239 221 207 204 205 203 203 198 189 181 179 174 177 178 170 166 156 143 130 107 81 57 39 29 22 18 12 41 72
229 256 145 142 169 155 217 219 176 150 123 271 144 281 277 240 234 223 215 207 208 206 196 188 183 183 187 188 177 166 163 155 148 144 134 129 122 112 28 12 31 27 38 63
238 200 157 178 194 167 195 121 121 128 131 47 350 217 282 254 238 235 221 212 208 202 194 190 187 186 185 178 170 165 158 151 147 147 143 132 122 125 88 56 63 49 36 49
242 240 185 189 146 142 124 77 61 53 72 302 230 190 276 234 223 230 217 212 205 197 193 188 178 167 169 166 162 158 155 155 152 150 144 144 144 141 122 90 78 55 41 42
318 321 292 137 96 61 96 94 48 10 8 258 248 205 253 253 233 221 213 207 199 189 182 175 168 169 173 171 168 162 160 162 161 157 155 158 159 156 156 155 136 113 73 53
165 260 235 179 159 159 158 139 153 187 221 278 289 239 257 265 263 233 210 193 183 180 180 181 179 178 179 175 170 167 170 169 166 164 166 164 160 155 161 162 152 148 147 141
168 235 277 201 150 136 138 156 156 132 160 279 282 286 300 296 342 184 163 163 178 183 183 185 180 179 178 176 177 176 172 169 170 169 162 162 164 163 168 161 147 148 150 137
151 183 270 164 80 49 139 141 111 120 148 256 295 283 262 285 280 261 187 184 187 181 181 181 178 179 180 180 173 168 169 172 171 166 168 169 171 172 165 151 156 162 150 127
132 141 297 85 161 163 109 108 115 124 151 159 267 275 233 239 234 220 221 203 188 185 183 182 181 178 171 164 163 167 169 167 169 168 166 162 167 164 158 162 172 166 148 140
134 121 179 249 254 180 157 163 147 152 198 172 186 269 274 247 236 212 218 207 190 185 181 177 172 164 163 166 171 174 175 175 178 171 163 167 163 157 160 171 175 161 152 146
140 120 100 355 341 86 158 163 153 132 127 158 180 265 302 338 309 225 211 207 187 174 168 165 165 170 176 175 176 178 179 181 173 163 161 161 162 167 174 175 167 157 152 143
125 129 164 191 213 190 194 189 163 140 162 197 218 254 294 305 287 267 236 211 189 178 174 173 178 182 182 180 178 179 182 179 170 164 165 171 179 181 180 170 162 159 156 151
115 158 195 218 220 191 201 205 191 192 191 194 224 234 257 254 244 241 220 197 189 186 183 183 186 186 182 180 179 180 182 177 171 168 174 184 181 171 166 163 162 156 155 159
107 151 168 224 224 214 232 222 205 210 202 213 231 252 252 257 226 222 216 200 200 200 195 191 188 184 186 187 185 182 182 179 171 175 183 176 165 165 168 168 160 152 151 149
133 137 145 218 249 58 253 223 201 203 200 188 212 236 253 246 231 222 217 210 212 206 196 193 191 191 191 191 186 187 186 174 174 180 178 171 168 170 175 168 156 159 162 153
149 138 145 162 132 228 243 228 191 193 213 203 214 229 222 225 230 222 201 202 213 207 199 199 196 196 193 187 185 180 169 169 177 179 178 174 172 175 169 162 169 170 158 159
161 146 143 151 196 262 283 233 181 183 234 211 211 231 234 243 42 306 233 205 206 203 198 197 194 190 180 179 176 166 169 172 176 182 184 181 177 173 170 175 178 172 163 167
130 134 138 150 179 228 244 244 189 136 254 232 197 208 188 125 153 262 257 216 211 201 187 178 168 161 167 174 165 166 173 176 188 191 189 180 175 174 179 183 176 166 165 171
131 139 164 171 204 251 252 248 124 158 237 235 193 195 173 184 208 226 216 193 186 174 171 158 156 167 177 166 162 173 178 193 196 183 174 173 177 180 179 172 167 160 158 153
167 165 178 163 194 242 244 140 170 214 236 189 190 190 181 202 210 183 167 175 163 145 134 146 155 165 161 160 167 177 193 198 174 165 171 177 178 179 173 163 165 162 159 157
188 184 178 188 211 234 213 207 225 193 197 201 190 201 166 170 193 176 155 150 155 152 148 150 151 148 149 165 174 185 197 174 163 165 175 177 174 176 169 169 168 161 165 168
259 157 146 221 255 256 258 258 264 215 213 213 182 169 150 160 169 150 140 140 138 133 136 136 132 137 157 178 184 189 177 166 163 168 172 168 167 167 164 167 170 170 176 178
213 172 163 230 266 293 272 245 263 289 114 122 98 136 152 140 147 154 146 145 148 132 122 128 137 152 169 174 176 168 159 156 159 162 163 163 164 163 162 166 177 181 189 188
200 183 180 218 221 207 243 255 224 170 186 179 130 75 100 146 156 151 149 150 143 136 130 130 132 139 152 155 146 143 152 155 153 156 161 161 160 160 159 153 134 108 144 163